[[{"header":{"parameterUnit":"m.s-1","parameterCategory":1,"la1":30.2991,"la2":30.254,"lo1":-89.0895,"lo2":-89.0444,"dy":0.0017,"dx":0.0017,"nx":28,"ny":28,"refTime":"2025-06-05T21:00:00:Z","depth":0,"parameterNumber":2,"parameterNumberName":"U-component_of_WINDS"},"data":[0,0,0,0,0,0,0,0,0,0,0,0,0,0,0,0,0,0,0,0,0,0,0,0,0,0,0,0,0,0,0,0,0,0,0,0,0,0,0,0,0,0,0,0,0,0,0,0,0,0,0,0,0,0,0,0,0,0,2.7236,2.7237,0,2.7353,2.7354,2.7356,2.7349,2.7347,2.7345,2.7344,2.7464,2.7469,2.7473,0,0,0,0,0,0,0,0,0,0,0,0,0,2.7004,2.7008,2.7236,2.7237,2.7239,2.7353,2.7354,2.7356,2.7349,2.7347,2.7345,2.7343,2.7462,2.7468,2.7474,0,0,0,0,0,0,0,0,0,0,0,0,0,2.7111,2.701,2.7236,2.7249,2.7251,2.7353,2.7355,2.7356,2.7349,2.7347,2.7344,2.7342,2.746,2.7467,2.7475,2.757,0,0,2.7497,2.75,0,0,0,0,0,0,0,0,2.7105,2.712,2.7245,2.7248,2.7251,2.7334,2.7317,2.7428,2.735,2.7312,2.7343,2.7341,2.7423,2.7433,2.746,2.7576,2.7581,2.7497,2.7502,2.7505,2.7507,0,0,0,0,0,0,0,2.7098,2.7115,2.7282,2.7247,2.7251,2.7248,2.7261,2.7338,2.738,2.7315,2.7315,2.7329,2.7424,2.7453,2.7463,2.7583,2.7497,2.7503,2.7508,2.7511,2.7779,2.7782,0,0,0,0,0,0,2.7088,2.7109,2.7278,2.7286,2.717,2.7255,2.7269,2.731,2.7379,2.7388,2.7331,2.7328,2.7442,2.7455,2.7467,2.7582,2.7505,2.7511,2.7515,2.7777,2.778,2.7783,0,0,0,0,0,0,2.7083,2.7103,2.7274,2.7197,2.7219,2.7261,2.7308,2.7313,2.7343,2.7391,2.7399,2.7354,2.7441,2.7457,2.7544,2.7586,2.7515,2.7521,2.7773,2.7778,2.7782,2.7812,0,0,0,0,0,0,2.7076,2.7101,2.7138,2.7198,2.7223,2.7349,2.731,2.7317,2.7355,2.7353,2.7415,2.7422,2.744,2.7533,2.7551,2.7594,2.7527,2.777,2.7775,2.778,2.7808,2.7817,2.7825,0,0,0,0,0,2.7068,2.7143,2.714,2.7161,2.727,2.7351,2.7365,2.7384,2.7359,2.7396,2.7427,2.7421,2.7579,2.7542,2.7562,2.7608,2.7767,2.7774,2.778,2.7804,2.7815,2.7825,0,0,0,0,0,0,2.7088,2.7151,2.7149,2.7246,2.7293,2.735,2.7398,2.7396,2.7452,2.7447,2.7468,2.7482,2.7568,2.7597,2.7556,2.7703,2.7669,2.768,2.7681,2.7692,2.77,2.7691,2.7533,0,0,0,0,0,2.7104,2.7164,2.7216,2.7297,2.7321,2.7355,2.7391,2.7401,2.7451,2.7471,2.7508,2.7557,2.7617,2.7656,2.7715,2.7812,2.7824,2.7853,2.7862,2.7869,2.7877,2.7928,2.7941,2.7804,2.7804,2.7804,0,0,2.7137,2.7179,2.7216,2.7302,2.734,2.7401,2.7372,2.7439,2.7484,2.7481,2.7565,2.7594,2.7649,2.774,2.7783,2.7767,2.7918,2.7877,2.7882,2.7887,2.7936,2.7949,2.796,2.7808,2.7807,2.7807,0,0,2.7228,2.7267,2.7337,2.7375,2.7432,2.7454,2.7471,2.7528,2.7546,2.763,2.7628,2.7683,2.7787,2.7825,2.7859,2.7962,2.7957,2.7981,2.8025,2.8074,2.8085,2.8095,2.8129,2.8142,2.7989,2.7989,2.7989,0,2.7262,2.7355,2.7373,2.744,2.7476,2.7476,2.7546,2.7582,2.7655,2.768,2.7662,2.7791,2.7828,2.7927,2.7952,2.798,2.7998,2.7973,2.8082,2.8092,2.8101,2.8134,2.8147,2.7992,2.7991,2.7991,2.7991,0,2.7392,2.7456,2.7506,2.7575,2.7618,2.7686,2.7714,2.7754,2.776,2.7784,2.7868,2.7913,2.7979,2.8004,2.8011,2.8103,2.8091,2.8078,2.8044,2.8116,2.8147,2.816,2.7995,2.7994,2.7993,2.7993,0,0,2.75,2.7577,2.7595,2.7625,2.7687,2.7737,2.7804,2.7868,2.7901,2.7952,2.8007,2.8094,2.8081,2.8119,2.813,2.8174,2.8249,2.8154,2.8156,2.8168,2.8351,2.8359,2.8373,2.8247,2.825,2.8252,2.8345,0,2.7595,2.7714,2.7731,2.7835,2.7893,2.7893,2.7951,2.7995,2.8018,2.8071,2.8097,2.8157,2.8136,2.8159,2.8202,2.8231,2.8286,2.8225,2.8297,2.83,2.8281,2.839,2.84,2.8486,2.8358,2.836,2.8361,0,2.7723,2.7775,2.7884,2.7936,2.7961,2.8013,2.8071,2.8122,2.8171,2.8185,2.8226,2.8231,2.83,2.8264,2.8357,2.8315,2.8346,2.8365,2.8368,2.8374,2.8333,2.8397,2.8514,2.8526,2.8381,2.838,2.8378,0,2.7786,2.7885,2.7962,2.7988,2.8051,2.8087,2.8115,2.8162,2.8198,2.825,2.8273,2.8332,2.8364,2.8409,2.843,2.8402,2.8521,2.8487,2.8532,2.8532,2.8556,2.8554,2.8678,2.858,2.858,2.8579,2.8579,0,2.789,2.7956,2.7991,2.8039,2.8112,2.8131,2.8204,2.8231,2.8272,2.8323,2.8328,2.8376,2.8401,2.8453,2.847,2.8543,2.8558,2.857,2.8574,2.8569,2.8567,2.8588,2.8582,2.8583,2.8582,2.8581,2.8581,0,2.7973,2.8,2.8083,2.8136,2.815,2.8202,2.8246,2.8292,2.8314,2.838,2.8396,2.8432,2.8493,2.8518,2.8594,2.8605,2.8688,2.8688,2.8671,2.8671,2.8714,2.8709,2.8854,2.8873,2.8765,2.8766,2.8766,0,2.8037,2.8087,2.8144,2.8179,2.8208,2.8264,2.83,2.8321,2.8359,2.8417,2.8455,2.8516,2.8566,2.8663,2.8695,2.8753,2.8753,2.8799,2.8761,2.8754,2.875,2.8746,2.875,2.8806,2.8807,2.8808,2.8809,0,2.8145,2.8155,2.8208,2.8264,2.8307,2.8353,2.8398,2.8426,2.8453,2.8495,2.8557,2.8596,2.8672,2.8731,2.879,2.8818,2.8817,2.882,2.8833,2.8828,2.8815,2.882,2.8688,2.8817,2.8816,2.8815,2.8815,2.8815,2.8219,2.8263,2.8309,2.8367,2.8402,2.8443,2.8487,2.8515,2.8567,2.863,2.8639,2.8704,2.875,2.8829,2.8859,2.891,2.8898,2.8918,2.8922,2.8926,2.8927,2.8808,2.8921,2.8921,2.8921,2.8921,2.892,0,2.8325,2.8355,2.8408,2.8469,2.8514,2.8509,2.8557,2.8595,2.8653,2.8695,2.8743,2.8813,2.8871,2.8907,2.8965,2.8998,2.8999,2.9013,2.9009,2.9015,2.8936,2.8918,2.9011,2.9011,2.9011,2.9011,2.9011,2.9011,2.8386,2.8459,2.8474,2.8564,2.8593,2.8656,2.8684,2.8721,2.8755,2.8833,2.888,2.8903,2.8943,2.9003,2.9055,2.9064,2.9084,2.9097,2.9105,2.903,2.9021,2.9012,2.8995,2.9102,2.9102,2.918,2.918,2.9181]},{"header":{"parameterUnit":"m.s-1","parameterCategory":1,"la1":30.2991,"la2":30.254,"lo1":-89.0895,"lo2":-89.0444,"dy":0.0017,"dx":0.0017,"nx":28,"ny":28,"refTime":"2025-06-05T21:00:00:Z","depth":0,"parameterNumber":3,"parameterNumberName":"V-component_of_WINDS"},"data":[0,0,0,0,0,0,0,0,0,0,0,0,0,0,0,0,0,0,0,0,0,0,0,0,0,0,0,0,0,0,0,0,0,0,0,0,0,0,0,0,0,0,0,0,0,0,0,0,0,0,0,0,0,0,0,0,0,0,1.0573,1.0573,0,1.0588,1.0588,1.0588,1.0551,1.055,1.0549,1.0548,1.0564,1.0565,1.0567,0,0,0,0,0,0,0,0,0,0,0,0,0,1.0514,1.0516,1.0573,1.0573,1.0574,1.0588,1.0588,1.0588,1.0551,1.055,1.0548,1.0547,1.0563,1.0565,1.0567,0,0,0,0,0,0,0,0,0,0,0,0,0,1.0535,1.0516,1.0573,1.0557,1.0556,1.0588,1.0588,1.0588,1.0551,1.055,1.0548,1.0546,1.0562,1.0565,1.0567,1.0616,0,0,1.0574,1.0575,0,0,0,0,0,0,0,0,1.0534,1.0538,1.0559,1.0558,1.0557,1.0566,1.0573,1.0598,1.0552,1.0553,1.0547,1.0545,1.0566,1.0568,1.0574,1.0617,1.0617,1.0574,1.0575,1.0576,1.0577,0,0,0,0,0,0,0,1.0533,1.0537,1.0579,1.0559,1.0558,1.0549,1.055,1.0577,1.0569,1.0553,1.055,1.0552,1.0565,1.0572,1.0574,1.0618,1.0574,1.0576,1.0577,1.0578,1.07,1.0702,0,0,0,0,0,0,1.0533,1.0536,1.0579,1.0579,1.0541,1.0551,1.0553,1.0565,1.0569,1.0568,1.0554,1.0551,1.0569,1.0572,1.0575,1.0632,1.0576,1.0579,1.058,1.0698,1.0701,1.0703,0,0,0,0,0,0,1.0532,1.0538,1.0578,1.0557,1.0561,1.0554,1.0568,1.0566,1.0573,1.0569,1.0568,1.0563,1.0568,1.0572,1.0606,1.0632,1.058,1.0582,1.0696,1.0699,1.0702,1.0747,0,0,0,0,0,0,1.0531,1.0537,1.0556,1.0558,1.0563,1.0609,1.057,1.0567,1.0577,1.0573,1.0577,1.0577,1.0567,1.0603,1.0608,1.0634,1.0583,1.0694,1.0697,1.0701,1.0744,1.0751,1.0758,0,0,0,0,0,1.0529,1.0569,1.0557,1.0562,1.0586,1.061,1.0613,1.0601,1.0579,1.0598,1.0595,1.0576,1.0628,1.0606,1.0612,1.064,1.0692,1.0696,1.07,1.074,1.075,1.0758,0,0,0,0,0,0,1.0571,1.0569,1.0556,1.0597,1.0604,1.0604,1.0627,1.0612,1.0625,1.0621,1.0605,1.0606,1.0643,1.0645,1.062,1.0687,1.0656,1.0662,1.0685,1.0694,1.0701,1.07,1.0585,0,0,0,0,0,1.0585,1.0605,1.0602,1.0639,1.0643,1.0635,1.0645,1.0634,1.0641,1.0644,1.0644,1.0652,1.0669,1.0682,1.0698,1.0743,1.0744,1.0765,1.0772,1.0778,1.0784,1.0807,1.0817,1.0717,1.0716,1.0716,0,0,1.0615,1.0616,1.0629,1.0647,1.0652,1.0673,1.0637,1.0661,1.0677,1.0648,1.068,1.068,1.0687,1.0727,1.0745,1.073,1.0811,1.0784,1.0789,1.079,1.0813,1.0822,1.083,1.0719,1.0719,1.0718,0,0,1.0679,1.0682,1.0713,1.0717,1.0724,1.0718,1.0725,1.0727,1.0726,1.0758,1.0736,1.0754,1.0786,1.0792,1.0799,1.0864,1.0847,1.087,1.0909,1.0932,1.094,1.0947,1.097,1.0979,1.0875,1.0875,1.0875,0,1.0715,1.0746,1.0731,1.0756,1.0765,1.0738,1.0769,1.0775,1.0787,1.0793,1.0776,1.0814,1.0817,1.0857,1.0873,1.088,1.0888,1.087,1.094,1.0947,1.0953,1.0975,1.0984,1.0878,1.0878,1.0877,1.0877,0,1.0789,1.0811,1.0835,1.0847,1.0858,1.0886,1.0875,1.0888,1.0877,1.0873,1.0905,1.0908,1.0924,1.0932,1.0922,1.0971,1.0962,1.0942,1.0912,1.0965,1.0986,1.0994,1.0882,1.0881,1.088,1.0879,0,0,1.0882,1.0884,1.0893,1.0897,1.0902,1.0919,1.0945,1.096,1.0972,1.0981,1.1003,1.1029,1.1011,1.1019,1.1009,1.1029,1.1081,1.1007,1.1007,1.1021,1.1135,1.115,1.116,1.1069,1.1071,1.1072,1.1135,0,1.0945,1.0991,1.0978,1.1024,1.1043,1.1018,1.1042,1.1047,1.1044,1.106,1.1056,1.1075,1.105,1.1054,1.1073,1.107,1.1103,1.1065,1.109,1.1091,1.1089,1.1171,1.1187,1.1246,1.1143,1.1144,1.1145,0,1.1026,1.1037,1.1085,1.1085,1.1093,1.1114,1.1127,1.1143,1.1148,1.1144,1.1153,1.1138,1.1164,1.1133,1.1169,1.1143,1.1152,1.1152,1.1154,1.1156,1.1122,1.1176,1.1265,1.1274,1.1158,1.1157,1.1156,0,1.1088,1.1115,1.1147,1.1152,1.1154,1.1169,1.117,1.1174,1.1184,1.1195,1.1201,1.1215,1.1223,1.1234,1.1223,1.1201,1.1261,1.1229,1.1259,1.1259,1.1273,1.1272,1.1365,1.1278,1.1278,1.1278,1.1278,0,1.1161,1.1191,1.1175,1.1195,1.1228,1.1212,1.1245,1.1244,1.1247,1.1266,1.1245,1.1264,1.1248,1.1265,1.1257,1.1288,1.1292,1.1289,1.1287,1.1291,1.1292,1.1297,1.1293,1.128,1.128,1.1279,1.1279,0,1.1237,1.1227,1.126,1.1259,1.1259,1.1283,1.1282,1.13,1.1295,1.1319,1.1324,1.1316,1.1335,1.1325,1.1344,1.1339,1.1379,1.1371,1.1377,1.1375,1.1405,1.1403,1.1506,1.1518,1.1423,1.1424,1.1425,0,1.1284,1.1306,1.1307,1.1318,1.1321,1.1339,1.1348,1.1334,1.1344,1.1352,1.1369,1.1386,1.1399,1.143,1.1426,1.1441,1.1433,1.1468,1.1435,1.1439,1.1433,1.1432,1.1434,1.1475,1.1476,1.1477,1.1477,0,1.1368,1.1362,1.1377,1.1389,1.1401,1.1411,1.1418,1.1429,1.1414,1.1427,1.1446,1.1456,1.1475,1.1492,1.1505,1.1506,1.149,1.1488,1.1495,1.15,1.1503,1.1502,1.1395,1.1485,1.1485,1.1484,1.1484,1.1483,1.1431,1.145,1.1453,1.147,1.1474,1.1481,1.1498,1.1494,1.151,1.1524,1.1514,1.1536,1.1541,1.1556,1.1559,1.1576,1.1563,1.1574,1.1577,1.158,1.1584,1.15,1.1579,1.1578,1.1578,1.1578,1.1578,0,1.1514,1.1515,1.1531,1.1542,1.1555,1.1537,1.1544,1.1557,1.1576,1.1581,1.1594,1.1615,1.1631,1.1628,1.1643,1.1657,1.165,1.1661,1.166,1.1661,1.1595,1.1587,1.1667,1.1667,1.1667,1.1667,1.1667,1.1667,1.1559,1.159,1.1584,1.1616,1.1617,1.1638,1.1644,1.165,1.1654,1.1679,1.1692,1.169,1.1692,1.1706,1.172,1.1719,1.1725,1.174,1.1736,1.1675,1.1666,1.1657,1.165,1.1741,1.1741,1.18,1.18,1.1801]}]]